カタログに戻る

STARLINK-36500

運用中通信VLEO
NORAD 67320·PAYLOAD·🇺🇸 United States

打ち上げ Jan 4, 2026 から Cape Canaveral Space Force Station

Loading…

次のパス (今後24時間)

TLE

最新Source: CelesTrak SupGP

元期: Sep 14, 2026, 21:07 UTC

1 67320C 26002R   26257.88034722 -.00019896  00000+0 -72064-3 0  2577
2 67320  43.0019 337.2277 0001299 271.6007 262.3707 15.27588242    14

AllMySatでSTARLINK-36500をリアルタイム追跡

Download on the App Store